WXM80 ListenWXM80 Stop

You find our weather info also at:

UK Metoffice

WeatherCloud

Weather Underground

Northeastern Weather Network

AWEKAS

Citizen Weather Observer Program (CWOP)

HAMweather, WeatherForYou, PWS Weather


Weather Underground History page Text

Daily Summary for May 18, 2017 Units:  Metric    English   Both
« Previous Day
Next Day »
Daily Weekly Monthly Yearly Custom
  High: Low: Average:
Temperature: 36.3 °C 22.6 °C 28.6 °C
Dew Point: 22.2 °C 17 °C 19.1 °C
Humidity: 79 % 34 % 59 %
Wind Speed: 16.1 km/h 0.2 km/h 5.1 km/h
Wind Gust: 32.2 km/h - -
Wind:- - SW
Pressure: 1012.8 hPa 1008 hPa -
Precipitation: 0 mm    
Historical Graphs
 
 
Tabular Data for May 18, 2017
Time Temperature Dew Point Pressure Wind Wind Speed Wind Gust Humidity Rainfall Rate (Hourly)
00:00 24.7 °C 19.1 °C 1011.7 hPa SW 3.7 km/h 5.6 km/h 71 % 0 mm
00:05 24.7 °C 19.1 °C 1011.7 hPa SSW 5.8 km/h 14.8 km/h 71 % 0 mm
00:10 24.7 °C 19.1 °C 1011.7 hPa WSW 3.4 km/h 5.6 km/h 71 % 0 mm
00:15 24.7 °C 19.1 °C 1011.7 hPa SW 3.4 km/h 14.8 km/h 71 % 0 mm
00:20 24.7 °C 19.1 °C 1011.7 hPa SSW 6 km/h 9.3 km/h 71 % 0 mm
00:25 24.7 °C 19.1 °C 1011.7 hPa SW 5.8 km/h 11.1 km/h 71 % 0 mm
00:30 24.7 °C 19.1 °C 1011.7 hPa SSW 6.6 km/h 11.1 km/h 71 % 0 mm
00:35 24.7 °C 18.9 °C 1011.7 hPa SSW 5.5 km/h 11.1 km/h 70 % 0 mm
00:40 24.8 °C 18.9 °C 1011.4 hPa SSW 3.5 km/h 14.8 km/h 70 % 0 mm
00:45 24.8 °C 19 °C 1011.7 hPa SW 2.6 km/h 6.4 km/h 70 % 0 mm
00:50 24.9 °C 18.9 °C 1011.4 hPa SW 5 km/h 9.3 km/h 69 % 0 mm
00:55 25 °C 18.9 °C 1011.4 hPa SSW 7.1 km/h 14.8 km/h 69 % 0 mm
01:00 25.1 °C 19 °C 1011.4 hPa SW 2.9 km/h 5.6 km/h 69 % 0 mm
01:06 25.2 °C 19.1 °C 1011.4 hPa WSW 1.8 km/h 7.4 km/h 69 % 0 mm
01:11 25.2 °C 19.1 °C 1011.4 hPa SSW 9.5 km/h 11.1 km/h 69 % 0 mm
01:16 25.3 °C 18.9 °C 1011.4 hPa SW 8 km/h 16.1 km/h 68 % 0 mm
01:21 25.3 °C 19 °C 1011.1 hPa WSW 3.2 km/h 9.7 km/h 68 % 0 mm
01:26 25.4 °C 19.1 °C 1011.1 hPa WSW 4.8 km/h 19.3 km/h 68 % 0 mm
01:31 25.4 °C 19.1 °C 1011.1 hPa SW 3.2 km/h 9.7 km/h 68 % 0 mm
01:36 25.4 °C 19.1 °C 1011.1 hPa SW 1.6 km/h 11.3 km/h 68 % 0 mm
01:41 25.4 °C 19.1 °C 1011.1 hPa SW 4.8 km/h 14.5 km/h 68 % 0 mm
01:46 25.4 °C 19.1 °C 1011.1 hPa SW 1.9 km/h 9.3 km/h 68 % 0 mm
01:51 25.5 °C 19.2 °C 1011.1 hPa SW 4.8 km/h 12.9 km/h 68 % 0 mm
01:56 25.4 °C 19.3 °C 1011.1 hPa West 5.8 km/h 18.5 km/h 69 % 0 mm
02:01 25.4 °C 19.3 °C 1011.1 hPa SW 4.5 km/h 9.7 km/h 69 % 0 mm
02:06 25.4 °C 19.3 °C 1011.1 hPa WSW 3.2 km/h 12.9 km/h 69 % 0 mm
02:11 25.3 °C 19.2 °C 1011.1 hPa SW 3.2 km/h 9.7 km/h 69 % 0 mm
02:16 25.3 °C 19.4 °C 1011.1 hPa SW 8 km/h 11.3 km/h 70 % 0 mm
02:21 25.3 °C 19.4 °C 1011.1 hPa SW 3.2 km/h 12.9 km/h 70 % 0 mm
02:26 25.2 °C 19.3 °C 1011.1 hPa SW 4.8 km/h 9.7 km/h 70 % 0 mm
02:31 25.1 °C 19.3 °C 1011.1 hPa WSW 5.1 km/h 11.1 km/h 70 % 0 mm
02:35 25.1 °C 19.2 °C 1011.1 hPa WSW 0.5 km/h 1.9 km/h 70 % 0 mm
02:41 25 °C 19.4 °C 1011.1 hPa SW 3.5 km/h 7.4 km/h 71 % 0 mm
02:46 24.9 °C 19.3 °C 1011.1 hPa SW 3.5 km/h 5.6 km/h 71 % 0 mm
02:51 24.8 °C 19.2 °C 1010.7 hPa WSW 3.2 km/h 9.7 km/h 71 % 0 mm
02:56 24.8 °C 19.2 °C 1011.1 hPa WSW 5 km/h 11.1 km/h 71 % 0 mm
02:59 24.7 °C 19.1 °C 1011.1 hPa WSW 3.4 km/h 9.3 km/h 71 % 0 mm
03:04 24.7 °C 19.1 °C 1011.1 hPa SW 6.1 km/h 16.7 km/h 71 % 0 mm
03:09 24.6 °C 19.2 °C 1011.1 hPa SW 7.2 km/h 9.7 km/h 72 % 0 mm
03:14 24.6 °C 19.2 °C 1011.1 hPa SW 4.7 km/h 11.1 km/h 72 % 0 mm
03:19 24.6 °C 18.9 °C 1011.1 hPa SW 9.7 km/h 18.5 km/h 71 % 0 mm
03:24 24.6 °C 18.9 °C 1011.1 hPa WSW 7.2 km/h 11.1 km/h 71 % 0 mm
03:25 24.6 °C 18.9 °C 1011.1 hPa SW 6.3 km/h 13 km/h 71 % 0 mm
03:30 24.6 °C 18.9 °C 1011.1 hPa SW 4 km/h 13 km/h 71 % 0 mm
03:35 24.6 °C 18.9 °C 1011.1 hPa WSW 8.4 km/h 8.4 km/h 71 % 0 mm
03:40 24.6 °C 18.9 °C 1011.1 hPa SW 4.8 km/h 7.4 km/h 71 % 0 mm
03:45 24.5 °C 19.1 °C 1011.1 hPa SW 3.2 km/h 7.4 km/h 72 % 0 mm
03:50 24.4 °C 19.1 °C 1011.4 hPa WSW 4.8 km/h 14.8 km/h 72 % 0 mm
03:55 24.4 °C 19.1 °C 1011.4 hPa WSW 1.6 km/h 11.1 km/h 72 % 0 mm
04:00 24.4 °C 19 °C 1011.4 hPa SW 6.1 km/h 7.4 km/h 72 % 0 mm
04:05 24.3 °C 18.9 °C 1011.4 hPa WSW 3.2 km/h 5.6 km/h 72 % 0 mm
04:11 24.3 °C 18.9 °C 1011.4 hPa West 6.9 km/h 9.3 km/h 72 % 0 mm
04:16 24.2 °C 19 °C 1011.4 hPa SW 5.6 km/h 5.6 km/h 73 % 0 mm
04:18 24.1 °C 18.9 °C 1011.4 hPa SSW 1.1 km/h 7.4 km/h 73 % 0 mm
04:23 24.1 °C 18.9 °C 1011.4 hPa SSW 4.5 km/h 8 km/h 73 % 0 mm
04:28 24 °C 18.8 °C 1011.4 hPa WSW 3.4 km/h 5.6 km/h 73 % 0 mm
04:33 23.9 °C 18.8 °C 1011.4 hPa SSW 1.8 km/h 5.6 km/h 73 % 0 mm
04:39 23.9 °C 18.9 °C 1011.4 hPa SW 1.9 km/h 5.6 km/h 74 % 0 mm
04:44 23.8 °C 18.9 °C 1011.7 hPa SSW 5 km/h 8 km/h 74 % 0 mm
04:49 23.8 °C 18.9 °C 1011.7 hPa WSW 1.1 km/h 5.6 km/h 74 % 0 mm
04:54 23.7 °C 18.9 °C 1011.7 hPa SW 2.3 km/h 7.4 km/h 75 % 0 mm
05:04 23.5 °C 19 °C 1011.7 hPa WSW 3.7 km/h 5.6 km/h 76 % 0 mm
05:09 23.4 °C 18.9 °C 1011.7 hPa WSW 4.8 km/h 7.4 km/h 76 % 0 mm
05:14 23.3 °C 18.9 °C 1011.7 hPa SW 3.4 km/h 6.4 km/h 76 % 0 mm
05:19 23.3 °C 19 °C 1011.7 hPa WSW 2.1 km/h 5.6 km/h 77 % 0 mm
05:24 23.2 °C 18.9 °C 1011.7 hPa SW 3.7 km/h 6.4 km/h 77 % 0 mm
05:29 23.1 °C 18.8 °C 1011.7 hPa SSW 4.3 km/h 5.6 km/h 77 % 0 mm
05:34 23 °C 18.7 °C 1011.7 hPa SW 2.4 km/h 6.4 km/h 77 % 0 mm
05:39 22.9 °C 18.7 °C 1011.7 hPa SSW 4.2 km/h 9.3 km/h 77 % 0 mm
05:44 22.9 °C 18.9 °C 1011.7 hPa WSW 1.9 km/h 3.7 km/h 78 % 0 mm
05:49 22.9 °C 18.7 °C 1011.7 hPa SW 0.8 km/h 3.7 km/h 77 % 0 mm
05:54 22.9 °C 18.8 °C 1011.7 hPa WSW 3.5 km/h 6.4 km/h 78 % 0 mm
05:59 22.8 °C 18.8 °C 1012.1 hPa SW 1.9 km/h 5.6 km/h 78 % 0 mm
06:04 22.8 °C 18.7 °C 1012.1 hPa SW 1.4 km/h 3.7 km/h 78 % 0 mm
06:09 22.8 °C 18.7 °C 1012.1 hPa SSW 0.8 km/h 3.7 km/h 78 % 0 mm
06:14 22.7 °C 18.7 °C 1012.1 hPa SW 6.1 km/h 7.4 km/h 78 % 0 mm
06:19 22.7 °C 18.7 °C 1012.1 hPa SSW 6.1 km/h 9.3 km/h 78 % 0 mm
06:24 22.7 °C 18.6 °C 1012.1 hPa WSW 2.4 km/h 5.6 km/h 78 % 0 mm
06:29 22.6 °C 18.8 °C 1012.1 hPa SW 2.3 km/h 5.6 km/h 79 % 0 mm
06:34 22.7 °C 18.8 °C 1012.1 hPa SW 4.3 km/h 4.8 km/h 79 % 0 mm
06:39 22.7 °C 18.8 °C 1012.1 hPa SW 4 km/h 5.6 km/h 79 % 0 mm
06:45 22.8 °C 18.9 °C 1012.1 hPa WSW 3.9 km/h 9.3 km/h 79 % 0 mm
06:50 22.9 °C 19.1 °C 1012.1 hPa WSW 3.2 km/h 13 km/h 79 % 0 mm
06:55 23.2 °C 19.2 °C 1012.1 hPa SW 6 km/h 16.7 km/h 78 % 0 mm
07:00 23.5 °C 19.4 °C 1012.1 hPa WSW 5.3 km/h 13 km/h 78 % 0 mm
07:05 23.8 °C 19.5 °C 1012.1 hPa WSW 7.7 km/h 14.8 km/h 77 % 0 mm
07:10 24.1 °C 19.8 °C 1012.4 hPa WSW 6.4 km/h 13 km/h 77 % 0 mm
07:15 24.2 °C 19.7 °C 1012.4 hPa West 6.8 km/h 13 km/h 76 % 0 mm
07:20 24.3 °C 19.6 °C 1012.4 hPa SW 3.5 km/h 6.4 km/h 75 % 0 mm
07:25 24.4 °C 19.7 °C 1012.4 hPa SSW 4 km/h 7.4 km/h 75 % 0 mm
07:30 24.5 °C 19.6 °C 1012.4 hPa SSW 4.3 km/h 9.3 km/h 74 % 0 mm
07:35 24.6 °C 19.7 °C 1012.4 hPa SSW 3.5 km/h 6.4 km/h 74 % 0 mm
07:40 24.7 °C 19.8 °C 1012.8 hPa West 3.1 km/h 11.1 km/h 74 % 0 mm
07:45 24.8 °C 19.9 °C 1012.8 hPa WSW 6.3 km/h 11.1 km/h 74 % 0 mm
07:50 24.9 °C 20 °C 1012.8 hPa SW 7.1 km/h 11.1 km/h 74 % 0 mm
07:56 25.1 °C 19.9 °C 1012.8 hPa West 5.1 km/h 8 km/h 73 % 0 mm
08:01 25.2 °C 20 °C 1012.8 hPa SSW 5.3 km/h 6.4 km/h 73 % 0 mm
08:06 25.3 °C 20.1 °C 1012.8 hPa WSW 1.6 km/h 9.7 km/h 73 % 0 mm
08:11 25.4 °C 20.2 °C 1012.8 hPa WSW 3.2 km/h 11.3 km/h 73 % 0 mm
08:16 25.6 °C 20.2 °C 1012.8 hPa SW 4.8 km/h 11.3 km/h 72 % 0 mm
08:21 25.8 °C 20.1 °C 1012.8 hPa WSW 3.1 km/h 14.5 km/h 71 % 0 mm
08:26 25.9 °C 20.3 °C 1012.8 hPa SW 4.8 km/h 11.3 km/h 71 % 0 mm
08:31 26.1 °C 20.4 °C 1012.8 hPa WSW 1.6 km/h 11.3 km/h 71 % 0 mm
08:36 26.3 °C 20.8 °C 1012.8 hPa West 1.3 km/h 5.6 km/h 72 % 0 mm
08:41 26.4 °C 20.6 °C 1012.8 hPa WSW 4.8 km/h 16.1 km/h 70 % 0 mm
08:46 26.6 °C 20.6 °C 1012.8 hPa SW 8 km/h 14.5 km/h 70 % 0 mm
08:51 26.7 °C 20.6 °C 1012.8 hPa WSW 8 km/h 12.9 km/h 69 % 0 mm
08:56 26.9 °C 20.7 °C 1012.4 hPa SW 6.1 km/h 13 km/h 69 % 0 mm
09:01 27.1 °C 20.7 °C 1012.4 hPa WSW 8.4 km/h 13 km/h 68 % 0 mm
09:06 27.3 °C 20.8 °C 1012.4 hPa West 8 km/h 11.1 km/h 68 % 0 mm
09:11 27.4 °C 21 °C 1012.4 hPa SW 4.3 km/h 9.3 km/h 68 % 0 mm
09:16 27.7 °C 21 °C 1012.4 hPa SSW 5.8 km/h 9.3 km/h 67 % 0 mm
09:21 27.8 °C 20.9 °C 1012.4 hPa SW 7.1 km/h 14.8 km/h 66 % 0 mm
09:26 28.1 °C 21.4 °C 1012.4 hPa West 3.5 km/h 5.6 km/h 67 % 0 mm
09:31 28.3 °C 21.1 °C 1012.1 hPa SW 4.3 km/h 9.3 km/h 65 % 0 mm
09:36 28.6 °C 21.4 °C 1012.1 hPa WSW 2.3 km/h 5.6 km/h 65 % 0 mm
09:41 28.9 °C 21.2 °C 1012.1 hPa SW 2.3 km/h 5.6 km/h 63 % 0 mm
09:46 29.3 °C 21.5 °C 1012.1 hPa WSW 3.1 km/h 7.4 km/h 63 % 0 mm
09:51 29.7 °C 21.1 °C 1012.1 hPa WNW 3.2 km/h 5.6 km/h 60 % 0 mm
09:56 30.1 °C 20.6 °C 1011.7 hPa WSW 7.1 km/h 11.1 km/h 57 % 0 mm
10:01 30.4 °C 20.1 °C 1011.7 hPa WNW 3.7 km/h 9.3 km/h 54 % 0 mm
10:06 30.8 °C 19.8 °C 1011.7 hPa SW 10.1 km/h 16.7 km/h 52 % 0 mm
10:11 31.2 °C 21.1 °C 1011.7 hPa West 1.9 km/h 8 km/h 55 % 0 mm
10:16 31.4 °C 20.1 °C 1011.7 hPa WSW 5.5 km/h 8 km/h 51 % 0 mm
10:21 31.8 °C 20.1 °C 1011.7 hPa SW 3.9 km/h 5.6 km/h 50 % 0 mm
10:26 32 °C 20.6 °C 1011.7 hPa West 4.3 km/h 8 km/h 51 % 0 mm
10:31 32.2 °C 19.5 °C 1011.7 hPa WSW 9.3 km/h 13 km/h 47 % 0 mm
10:36 32.4 °C 19.6 °C 1011.7 hPa SW 9.5 km/h 13 km/h 47 % 0 mm
10:41 32.6 °C 20.1 °C 1011.7 hPa SSW 6.9 km/h 8 km/h 48 % 0 mm
10:46 32.7 °C 19.2 °C 1011.7 hPa WSW 11.9 km/h 20.4 km/h 45 % 0 mm
10:47 32.7 °C 19.2 °C 1011.7 hPa WSW 7.9 km/h 20.4 km/h 45 % 0 mm
10:52 32.7 °C 19.6 °C 1011.7 hPa SW 9.3 km/h 13 km/h 46 % 0 mm
10:57 32.8 °C 19.3 °C 1011.4 hPa West 7.7 km/h 16.7 km/h 45 % 0 mm
11:02 32.9 °C 19.8 °C 1011.4 hPa SW 7.9 km/h 11.1 km/h 46 % 0 mm
11:07 33.1 °C 19.6 °C 1011.4 hPa WSW 11.6 km/h 16.7 km/h 45 % 0 mm
11:12 33.2 °C 19.6 °C 1011.7 hPa SW 7.2 km/h 13 km/h 45 % 0 mm
11:17 33.3 °C 19.4 °C 1011.4 hPa West 8 km/h 18.5 km/h 44 % 0 mm
11:22 33.3 °C 19.1 °C 1011.4 hPa WNW 8.2 km/h 13 km/h 43 % 0 mm
11:27 33.5 °C 20.3 °C 1011.4 hPa WSW 9 km/h 14.8 km/h 46 % 0 mm
11:28 33.5 °C 19.6 °C 1011.4 hPa West 6.3 km/h 16.1 km/h 44 % 0 mm
11:33 33.6 °C 20.1 °C 1011.1 hPa WSW 2.7 km/h 16.7 km/h 45 % 0 mm
11:39 33.7 °C 19 °C 1011.1 hPa West 6.9 km/h 13 km/h 42 % 0 mm
11:44 33.8 °C 19.1 °C 1011.1 hPa WSW 12.6 km/h 16.7 km/h 42 % 0 mm
11:47 33.9 °C 19.9 °C 1011.1 hPa WSW 6 km/h 11.1 km/h 44 % 0 mm
11:52 34 °C 19.3 °C 1011.1 hPa WSW 11.4 km/h 16.7 km/h 42 % 0 mm
11:57 34.1 °C 19.8 °C 1011.1 hPa West 7.6 km/h 16.7 km/h 43 % 0 mm
12:02 34.2 °C 19.5 °C 1011.1 hPa WSW 6.1 km/h 11.3 km/h 42 % 0 mm
12:07 34.3 °C 19.9 °C 1011.1 hPa WSW 4.8 km/h 9.7 km/h 43 % 0 mm
12:12 34.4 °C 20.1 °C 1011.1 hPa NW 9.5 km/h 13 km/h 43 % 0 mm
12:14 34.5 °C 19.3 °C 1010.7 hPa WSW 7.7 km/h 16.7 km/h 41 % 0 mm
12:19 34.7 °C 19.6 °C 1010.7 hPa West 4.7 km/h 9.3 km/h 41 % 0 mm
12:24 34.8 °C 20 °C 1010.7 hPa WSW 3.9 km/h 7.4 km/h 42 % 0 mm
12:29 34.9 °C 19.3 °C 1010.7 hPa West 3.1 km/h 5.6 km/h 40 % 0 mm
12:35 35.1 °C 20.3 °C 1010.7 hPa WSW 9.8 km/h 11.3 km/h 42 % 0 mm
12:40 35.2 °C 19.9 °C 1010.7 hPa WSW 11.1 km/h 11.1 km/h 41 % 0 mm
12:45 35.2 °C 19.1 °C 1010.4 hPa WNW 2.3 km/h 7.4 km/h 39 % 0 mm
12:50 35.3 °C 18.8 °C 1010.4 hPa WSW 5.5 km/h 11.1 km/h 38 % 0 mm
12:55 35.4 °C 19.3 °C 1010.4 hPa SSW 7.2 km/h 13 km/h 39 % 0 mm
13:00 35.5 °C 19 °C 1010.4 hPa SW 6.3 km/h 11.1 km/h 38 % 0 mm
13:05 35.7 °C 19.2 °C 1010.4 hPa WSW 5.6 km/h 9.3 km/h 38 % 0 mm
13:10 35.8 °C 18.8 °C 1010 hPa West 8.7 km/h 13 km/h 37 % 0 mm
13:15 35.8 °C 19.3 °C 1010 hPa WNW 5.3 km/h 8 km/h 38 % 0 mm
13:20 35.9 °C 17.6 °C 1010 hPa WSW 10.1 km/h 16.7 km/h 34 % 0 mm
13:25 35.9 °C 18.6 °C 1010 hPa WSW 6.4 km/h 8 km/h 36 % 0 mm
13:30 36 °C 19 °C 1010 hPa West 2.1 km/h 5.6 km/h 37 % 0 mm
13:35 36.2 °C 20.8 °C 1010 hPa SSW 4.8 km/h 6.4 km/h 41 % 0 mm
13:41 36.3 °C 21.7 °C 1009.7 hPa SSW 2.9 km/h 5.6 km/h 43 % 0 mm
13:46 36.1 °C 21.2 °C 1009.7 hPa SSW 8 km/h 12.9 km/h 42 % 0 mm
13:51 36 °C 21.1 °C 1009.7 hPa SSW 4.8 km/h 16.1 km/h 42 % 0 mm
13:56 36.1 °C 22.2 °C 1009.7 hPa SSW 8 km/h 14.5 km/h 45 % 0 mm
14:01 36.1 °C 21.9 °C 1009.7 hPa South 1.3 km/h 11.1 km/h 44 % 0 mm
14:06 36.2 °C 22 °C 1009.7 hPa West 3.9 km/h 17.7 km/h 44 % 0 mm
14:11 36.2 °C 21.2 °C 1009.7 hPa SSW 7.9 km/h 13 km/h 42 % 0 mm
14:16 36.2 °C 21.2 °C 1009.7 hPa WSW 6 km/h 16.7 km/h 42 % 0 mm
14:21 36.2 °C 21.2 °C 1009.4 hPa SSW 3.2 km/h 13 km/h 42 % 0 mm
14:26 36.1 °C 19.9 °C 1009.4 hPa SW 9.5 km/h 18.5 km/h 39 % 0 mm
14:31 36.1 °C 20.3 °C 1009.4 hPa SSE 1.3 km/h 5.6 km/h 40 % 0 mm
14:36 36 °C 19.9 °C 1009.4 hPa SSW 7.9 km/h 20.4 km/h 39 % 0 mm
14:41 36 °C 21.1 °C 1009.4 hPa SSW 4.2 km/h 8 km/h 42 % 0 mm
14:46 36 °C 19.9 °C 1009.4 hPa SW 4.5 km/h 13 km/h 39 % 0 mm
14:51 36 °C 20.3 °C 1009.4 hPa SE 5.6 km/h 11.1 km/h 40 % 0 mm
14:56 36 °C 19.9 °C 1009.4 hPa SW 2.9 km/h 14.8 km/h 39 % 0 mm
15:06 35.7 °C 20 °C 1009.4 hPa WSW 2.7 km/h 9.7 km/h 40 % 0 mm
15:11 35.6 °C 19.9 °C 1009.4 hPa WSW 8.2 km/h 11.3 km/h 40 % 0 mm
15:16 35.7 °C 20 °C 1009.4 hPa SSW 6.4 km/h 11.1 km/h 40 % 0 mm
15:22 35.7 °C 19.6 °C 1009 hPa SW 11.1 km/h 18.5 km/h 39 % 0 mm
15:27 35.5 °C 19 °C 1009 hPa WSW 5.3 km/h 18.5 km/h 38 % 0 mm
15:32 35.4 °C 18.9 °C 1009 hPa SSW 6.1 km/h 18.5 km/h 38 % 0 mm
15:37 35.4 °C 19.7 °C 1009 hPa ESE 3.7 km/h 7.4 km/h 40 % 0 mm
15:42 35.3 °C 19.7 °C 1009 hPa South 6.6 km/h 11.3 km/h 40 % 0 mm
15:47 35.3 °C 20.1 °C 1009 hPa SSW 1.6 km/h 7.4 km/h 41 % 0 mm
15:52 35.2 °C 20 °C 1009 hPa SW 3.4 km/h 7.4 km/h 41 % 0 mm
15:57 35.2 °C 19.6 °C 1009 hPa South 6 km/h 13 km/h 40 % 0 mm
16:02 35.1 °C 19.5 °C 1009 hPa SSW 4.5 km/h 9.3 km/h 40 % 0 mm
16:07 35.1 °C 20.6 °C 1009 hPa SSW 1.9 km/h 8 km/h 43 % 0 mm
16:12 35 °C 19.8 °C 1008.7 hPa SSW 1.1 km/h 14.8 km/h 41 % 0 mm
16:17 34.8 °C 19.6 °C 1009 hPa SSW 2.6 km/h 9.3 km/h 41 % 0 mm
16:22 34.7 °C 19.5 °C 1008.7 hPa SSW 3.2 km/h 7.4 km/h 41 % 0 mm
16:27 34.6 °C 19.4 °C 1009 hPa SSW 2.7 km/h 6.4 km/h 41 % 0 mm
16:32 34.4 °C 19.6 °C 1009 hPa South 9.7 km/h 18.5 km/h 42 % 0 mm
16:38 34.2 °C 19.5 °C 1009 hPa South 4 km/h 13 km/h 42 % 0 mm
16:43 34 °C 19.3 °C 1009 hPa South 1.8 km/h 5.6 km/h 42 % 0 mm
16:48 33.8 °C 19.1 °C 1009 hPa South 5.6 km/h 18.5 km/h 42 % 0 mm
16:53 33.6 °C 19.3 °C 1009 hPa South 2.7 km/h 9.3 km/h 43 % 0 mm
16:58 33.4 °C 19.5 °C 1009 hPa SW 3.9 km/h 6.4 km/h 44 % 0 mm
17:03 33.4 °C 19.5 °C 1009 hPa South 2.1 km/h 7.4 km/h 44 % 0 mm
17:08 33.2 °C 19.3 °C 1009 hPa SSW 4.7 km/h 11.1 km/h 44 % 0 mm
17:13 32.9 °C 18.3 °C 1009 hPa South 4.2 km/h 13 km/h 42 % 0 mm
17:18 32.7 °C 18.5 °C 1009 hPa SSW 5.8 km/h 11.3 km/h 43 % 0 mm
17:23 32.6 °C 18.3 °C 1009 hPa SSW 6.4 km/h 9.3 km/h 43 % 0 mm
17:28 32.3 °C 18.5 °C 1009 hPa SSW 3.7 km/h 5.6 km/h 44 % 0 mm
17:33 32.2 °C 18 °C 1008.7 hPa SW 4.5 km/h 9.3 km/h 43 % 0 mm
17:38 31.9 °C 17.8 °C 1009 hPa South 4.2 km/h 11.3 km/h 43 % 0 mm
17:43 31.8 °C 17.7 °C 1008.7 hPa SW 1.9 km/h 11.1 km/h 43 % 0 mm
17:48 31.6 °C 17.5 °C 1008.7 hPa SE 3.2 km/h 5.6 km/h 43 % 0 mm
17:53 31.5 °C 17.4 °C 1008.7 hPa SSE 6.6 km/h 14.8 km/h 43 % 0 mm
17:58 31.3 °C 17.6 °C 1008.4 hPa SSW 1.9 km/h 5.6 km/h 44 % 0 mm
18:03 31.2 °C 17.5 °C 1008.4 hPa South 1.6 km/h 5.6 km/h 44 % 0 mm
18:08 31.1 °C 17.1 °C 1008.4 hPa SW 7.4 km/h 13 km/h 43 % 0 mm
18:13 31 °C 17.3 °C 1008.4 hPa SSW 6.1 km/h 11.1 km/h 44 % 0 mm
18:18 30.9 °C 17.2 °C 1008.4 hPa South 6.6 km/h 13 km/h 44 % 0 mm
18:23 30.8 °C 17.1 °C 1008.4 hPa SSW 7.1 km/h 9.3 km/h 44 % 0 mm
18:28 30.7 °C 17 °C 1008.4 hPa SSE 3.9 km/h 11.1 km/h 44 % 0 mm
18:33 30.5 °C 17.2 °C 1008.4 hPa SSW 3.1 km/h 7.4 km/h 45 % 0 mm
18:38 30.4 °C 17.1 °C 1008 hPa SSW 5.6 km/h 9.3 km/h 45 % 0 mm
18:43 30.2 °C 17.3 °C 1008.4 hPa East 6 km/h 9.7 km/h 46 % 0 mm
18:48 30.1 °C 17.5 °C 1008 hPa SSE 5.1 km/h 13 km/h 47 % 0 mm
18:53 29.9 °C 17.3 °C 1008 hPa South 7.9 km/h 11.1 km/h 47 % 0 mm
18:54 29.8 °C 17.3 °C 1008 hPa SSW 6.9 km/h 11.1 km/h 47 % 0 mm
18:59 29.7 °C 17.5 °C 1008 hPa SSW 2.6 km/h 9.3 km/h 48 % 0 mm
19:04 29.4 °C 17.3 °C 1008.4 hPa SSW 6 km/h 11.1 km/h 48 % 0 mm
19:09 29.2 °C 17.4 °C 1008.4 hPa SSW 4.3 km/h 9.3 km/h 49 % 0 mm
19:14 29.1 °C 17.3 °C 1008.4 hPa SSW 6.9 km/h 9.3 km/h 49 % 0 mm
19:19 28.8 °C 17.4 °C 1008.4 hPa South 3.2 km/h 9.3 km/h 50 % 0 mm
19:24 28.7 °C 17.6 °C 1008.4 hPa SSW 3.2 km/h 5.6 km/h 51 % 0 mm
19:29 28.5 °C 17.4 °C 1008.4 hPa WSW 2.4 km/h 8 km/h 51 % 0 mm
19:34 28.3 °C 17.5 °C 1008.7 hPa SSW 5.6 km/h 8 km/h 52 % 0 mm
19:39 28.1 °C 17.3 °C 1008.4 hPa SSW 4.3 km/h 5.6 km/h 52 % 0 mm
19:44 27.8 °C 17.4 °C 1008.4 hPa SSW 6.6 km/h 9.7 km/h 53 % 0 mm
19:49 27.6 °C 17.2 °C 1008 hPa SSW 5.5 km/h 11.3 km/h 53 % 0 mm
19:54 27.4 °C 17.3 °C 1008 hPa SSW 3.5 km/h 6.4 km/h 54 % 0 mm
19:59 27.3 °C 17.2 °C 1008.4 hPa SW 5.5 km/h 9.3 km/h 54 % 0 mm
20:04 27.1 °C 17.2 °C 1008.4 hPa SSW 5 km/h 7.4 km/h 55 % 0 mm
20:09 26.9 °C 17.1 °C 1008.7 hPa SSW 5 km/h 14.8 km/h 55 % 0 mm
20:14 26.7 °C 17.2 °C 1008.7 hPa SW 2.7 km/h 5.6 km/h 56 % 0 mm
20:15 26.7 °C 17.2 °C 1008.7 hPa SW 2.6 km/h 7.4 km/h 56 % 0 mm
20:20 26.6 °C 17.3 °C 1008.4 hPa South 3.5 km/h 5.6 km/h 57 % 0 mm
20:25 26.4 °C 17.7 °C 1008.4 hPa South 3.4 km/h 5.6 km/h 59 % 0 mm
20:30 26.2 °C 17.6 °C 1008.4 hPa SSW 1.6 km/h 5.6 km/h 59 % 0 mm
20:35 26.1 °C 17.7 °C 1008.4 hPa SSW 3.4 km/h 7.4 km/h 60 % 0 mm
20:40 25.9 °C 17.8 °C 1008.4 hPa SSW 2.4 km/h 3.7 km/h 61 % 0 mm
20:45 25.8 °C 17.7 °C 1008.4 hPa SSW 0.2 km/h 5.6 km/h 61 % 0 mm
20:50 25.7 °C 17.6 °C 1008.4 hPa SW 1.9 km/h 3.7 km/h 61 % 0 mm
20:55 25.5 °C 17.7 °C 1008.7 hPa SSW 2.3 km/h 5.6 km/h 62 % 0 mm
21:00 25.4 °C 17.6 °C 1008.7 hPa WSW 4.5 km/h 8 km/h 62 % 0 mm
21:05 25.3 °C 17.7 °C 1008.7 hPa SW 1.9 km/h 5.6 km/h 63 % 0 mm
21:10 25.2 °C 17.7 °C 1008.7 hPa SSW 2.6 km/h 3.7 km/h 63 % 0 mm
21:15 25.1 °C 17.8 °C 1008.7 hPa WSW 0.6 km/h 5.6 km/h 64 % 0 mm
21:20 25 °C 17.7 °C 1008.4 hPa SSW 3.9 km/h 5.6 km/h 64 % 0 mm
21:25 24.9 °C 17.7 °C 1008.4 hPa SW 1.3 km/h 5.6 km/h 64 % 0 mm
21:31 24.9 °C 17.8 °C 1008.4 hPa SW 3.2 km/h 14.5 km/h 65 % 0 mm
21:36 24.8 °C 17.8 °C 1008.4 hPa SW 3.2 km/h 12.9 km/h 65 % 0 mm
21:41 24.8 °C 17.8 °C 1008.7 hPa SW 1.6 km/h 11.3 km/h 65 % 0 mm
21:46 24.8 °C 18 °C 1008.7 hPa SW 1.6 km/h 12.9 km/h 66 % 0 mm
21:51 24.8 °C 18.1 °C 1008.7 hPa SSW 4.8 km/h 16.1 km/h 66 % 0 mm
21:55 24.9 °C 18.1 °C 1008.7 hPa SSW 3.2 km/h 20.9 km/h 66 % 0 mm
22:01 24.9 °C 17.9 °C 1009 hPa SW 7.4 km/h 13 km/h 65 % 0 mm
22:06 25 °C 18 °C 1008.7 hPa SW 8 km/h 20.9 km/h 65 % 0 mm
22:11 25.1 °C 18.1 °C 1009 hPa SW 3.2 km/h 9.7 km/h 65 % 0 mm
22:16 25.2 °C 18.1 °C 1008.7 hPa SW 4.8 km/h 16.1 km/h 65 % 0 mm
22:21 25.2 °C 18.2 °C 1009 hPa SW 4.8 km/h 11.3 km/h 65 % 0 mm
22:26 25.3 °C 18 °C 1009 hPa SW 9.7 km/h 19.3 km/h 64 % 0 mm
22:31 25.3 °C 18.3 °C 1009 hPa SW 4.8 km/h 12.9 km/h 65 % 0 mm
22:36 25.4 °C 18.3 °C 1009 hPa SW 8 km/h 19.3 km/h 65 % 0 mm
22:41 25.4 °C 18.4 °C 1009 hPa SW 9.7 km/h 22.5 km/h 65 % 0 mm
22:46 25.6 °C 18.7 °C 1009 hPa SW 4.8 km/h 16.1 km/h 66 % 0 mm
22:51 25.7 °C 18.6 °C 1009 hPa SW 16.1 km/h 32.2 km/h 65 % 0 mm
22:56 25.8 °C 18.7 °C 1009 hPa SW 3.2 km/h 29 km/h 65 % 0 mm
23:01 25.9 °C 18.8 °C 1009 hPa SW 8.9 km/h 11.3 km/h 65 % 0 mm
23:05 26 °C 18.9 °C 1009 hPa WSW 14.3 km/h 16.7 km/h 65 % 0 mm
23:11 26.1 °C 18.9 °C 1009 hPa SW 8 km/h 22.5 km/h 65 % 0 mm
23:16 26.1 °C 18.9 °C 1009 hPa SSW 10.5 km/h 22.5 km/h 65 % 0 mm
23:21 26.1 °C 19 °C 1009 hPa South 13 km/h 27.8 km/h 65 % 0 mm
23:26 26.2 °C 19.1 °C 1009 hPa SW 7.6 km/h 16.7 km/h 65 % 0 mm
23:31 26.2 °C 19.1 °C 1009 hPa WSW 11.9 km/h 27.8 km/h 65 % 0 mm
23:36 26.1 °C 19 °C 1009 hPa SW 8.5 km/h 14.8 km/h 65 % 0 mm
23:41 26.2 °C 19.1 °C 1009.4 hPa WSW 6.9 km/h 18.5 km/h 65 % 0 mm
23:46 26.2 °C 19.1 °C 1009.4 hPa SW 8 km/h 16.1 km/h 65 % 0 mm
23:51 26.2 °C 19.1 °C 1009 hPa SW 6.4 km/h 13 km/h 65 % 0 mm
23:56 26.1 °C 19.3 °C 1009 hPa West 9.8 km/h 18.5 km/h 66 % 0 mm
23:57 26.1 °C 19.3 °C 1009 hPa WSW 4.5 km/h 9.7 km/h 66 % 0 mm
Crab Meadow Weather
Compliments of Weather Underground - 3 mb

Script developed by  Jim McMurry - jmcmurry@mwt.net Adapted for the template by  Wim van der Kuil - Leuven-Template.eu

Astronomy: One year on Pluto is equal to 248 Earth years.